Regional Weather Roundup
Issued by NWS

Home | Current Version | Previous Version | Graphics & Text | Print | Product List | Glossary On
Versions: 1 2 3 4 5 6 7 8 9 10 11 12 13 14 15 16 17 18 19 20 21 22 23 24 25 26 27 28 29 30 31 32 33 34 35 36 37 38 39 40 41 42 43 44 45 46 47 48 49 50
603
ASUS44 KJAN 010903
RWRMS

MISSISSIPPI HOURLY WEATHER ROUNDUP
NATIONAL WEATHER SERVICE JACKSON MS
300 AM CST SUN FEB 01 2015

NOTE: "FAIR: INDICATES FEW OR NO CLOUDS BELOW 12,000 FEET WITH NO
SIGNIFICANT WEATHER AND/OR OBSTRUCTIONS TO VISIBILITY.

MSZ001>002-007>008-010>013-018>021-025>028-034>036-011000-
NORTHWEST MISSISSIPPI

CITY           SKY/WX    TMP DP  RH WIND       PRES   REMARKS
CLARKSDALE     CLOUDY    50  36  57 SE12      29.97F
CLEVELAND      DRIZZLE   49  43  79 S15       29.98F
GREENWOOD      LGT RAIN  51  43  74 S12       30.03F
GREENVILLE     LGT RAIN  50  41  71 SE12      29.98F
GRENADA        LGT RAIN  50  36  57 S8        30.04R
OLIVE BRANCH   CLEAR     48  28  46 S10G16    30.00F
OXFORD         FAIR      48  27  43 S13G21    30.04F
TUNICA         CLOUDY    48  32  53 SE12      29.98F
$$

MSZ003>006-009-014>017-022>024-029>033-037>039-011000-
NORTHEAST MISSISSIPPI

CITY           SKY/WX    TMP DP  RH WIND       PRES   REMARKS
COLUMBUS AFB   CLOUDY    48  30  49 S6        30.09F
GOLDN TRIANGLE CLOUDY    46  28  49 SE10      30.08F
STARKVILLE     FAIR      46  32  57 S5        30.09S
TUPELO         CLOUDY    49  27  42 S12       30.07F
$$

MSZ040-058-011000-
CENTRAL MISSISSIPPI

CITY           SKY/WX    TMP DP  RH WIND       PRES   REMARKS
JACKSON INTL   CLOUDY    52  46  80 SE5       30.06F
JACKSON HAWKNS LGT RAIN  51  46  83 SE8       30.05F
MERIDIAN KEY   CLOUDY    49  41  74 S7        30.09F
MERIDIAN NAS   CLOUDY    44  35  70 E5        30.10F
RAYMOND        FAIR      52  46  82 SE6       30.05F
VICKSBURG      LGT RAIN  52  48  86 SE7       30.03F
$$

MSZ059>079-011000-
SOUTH MISSISSIPPI

CITY           SKY/WX    TMP DP  RH WIND       PRES   REMARKS
BROOKHAVEN       N/A     52  48  87 SE7       30.05F
HATTIESBURG    MOCLDY    47  43  86 CALM      30.08F
MCCOMB         CLOUDY    51  48  89 SE7       30.04F
NATCHEZ        CLOUDY    55  48  76 SE14      30.02F
PINE BELT      CLOUDY    52  43  71 SE6       30.08F
$$

MSZ080>082-011000-
COASTAL MISSISSIPPI

CITY           SKY/WX    TMP DP  RH WIND       PRES   REMARKS
BILOXI         MOCLDY    53  52  95 E8        30.07F
PASCAGOULA     PTCLDY    48  46  93 E7        30.10F
GULFPORT       CLOUDY    58  53  84 E13       30.07F
$$



USA.gov is the U.S. government's official web portal to all federal, state and local government web resources and services.